TIME,DELAY(SENSOR),PRES,T(CTD),SAL,OXYGEN,RAWTEMP,T(OPTODE),TCPHASE,FLUOR,BETA(BETA700),BETA(BETA412),BETA(BETA440),CDOM,C(CSC),ED(ED411.90),ED(ED443.80),ED(ED489.40),ED(ED554.70),LU(LU412.20),LU(LU443.80),LU(LU489.40),LU(LU555.00),COMP,TILTX,TILTX(TILTY),CHECK
1354722275,5804,495.8800048828125000,17.4118995666503900,36.4514999389648440,232.3047027587890600,174.8435974121093800,17.4068698883056640,31.1289196014404300,50,99,53,53,51,13050,2146955611,2147512685,2147268891,2147460470,2147083629,2146950747,2147658934,2147122057,610,-1,8,39695
1354722393,5804,484.5700073242187500,17.5151004791259770,36.4690017700195300,233.0879974365234400,171.4210968017578000,17.5101299285888670,31.0441799163818360,50,98,54,58,57,13052,2146956406,2147515520,2147268608,2147460598,2147085357,2146958656,2147656292,2147122825,2287,-1,8,24605
1354722520,5804,472.6199951171875000,17.6021995544433600,36.4860992431640600,234.0612945556640600,168.5484008789062500,17.5968093872070300,30.9579505920410160,50,99,54,59,56,13050,2146957458,2147517394,2147268580,2147462518,2147087122,2146949622,2147656530,2147124342,1327,-2,8,53278
1354722649,5807,460.6700134277344000,17.6480998992919920,36.4938011169433600,233.8323059082031200,166.9436035156250000,17.6452407836914060,30.9472103118896500,50,102,55,60,57,13048,2146961252,2147513718,2147267904,2147459410,2147084681,2146947291,2147657234,2147125650,166,-1,8,14454
1354722764,5802,450.1300048828125000,17.7231998443603500,36.5066986083984400,234.4720001220703000,164.5559997558593800,17.7173004150390620,30.8843708038330080,51,99,55,59,57,13048,2146958829,2147515163,2147265408,2147459894,2147083574,2146950482,2147655899,2147125787,2934,-1,8,20790
1354722891,5807,438.7200012207031000,17.7618999481201170,36.5135993957519500,234.7442932128906200,163.2550964355468800,17.7565708160400400,30.8535499572753900,50,99,55,58,57,13048,2146958848,2147517129,2147265910,2147456356,2147084690,2146950372,2147654125,2147122450,1709,-1,9,41467
1354723021,5805,427.2300109863281000,17.8197994232177730,36.5232009887695300,235.3890991210937500,161.2449035644531200,17.8172492980957030,30.7954101562500000,50,98,54,59,57,13048,2146954825,2147517878,2147266514,2147459062,2147087186,2146955172,2147653330,2147122459,316,-1,8,7702
1354723148,5802,415.9899902343750000,17.8922996520996100,36.5345001220703100,235.1716003417968800,158.8836975097656200,17.8885402679443360,30.7742595672607420,50,98,54,59,56,13049,2146958409,2147509833,2147266806,2147459638,2147084214,2146953462,2147656694,2147121490,2960,-1,8,17439
1354723265,5804,405.5899963378906000,17.9297008514404300,36.5400009155273440,235.6410064697265600,157.6802062988281200,17.9248790740966800,30.7356605529785160,50,98,55,59,57,13050,2146956352,2147517595,2147265398,2147458240,2147088155,2146954614,2147649782,2147132443,2267,-1,8,51957
1354723392,5806,394.2600097656250000,17.9804000854492200,36.5472984313964840,235.4331054687500000,155.9998931884765600,17.9756202697753900,30.7230205535888670,50,99,55,59,57,13051,2146959515,2147514971,2147261522,2147459894,2147087360,2146953572,2147655104,2147127716,1726,-1,8,20467
1354723519,5806,383.0400085449219000,18.0151004791259770,36.5499000549316400,235.0953063964843800,154.8495025634765600,18.0103607177734380,30.7238006591796880,50,98,54,57,57,13049,2146954998,2147512685,2147264356,2147457097,2147085577,2146956690,2147652608,2147128320,187,-1,8,17631
1354723637,5803,372.4800109863281000,18.0473003387451170,36.5541992187500000,234.2295074462890600,153.8119049072265600,18.0417003631591800,30.7518291473388670,50,99,55,60,57,13046,2146955401,2147512201,2147264100,2147458715,2147087744,2146955410,2147656045,2147132342,2765,-1,8,15260
1354723764,5803,361.2099914550781000,18.0933990478515620,36.5603981018066400,233.0904998779297000,152.2532043457031200,18.0887794494628900,30.7863006591796880,50,99,55,60,56,13045,2146957888,2147516781,2147261787,2147458304,2147089152,2146956251,2147654034,2147127021,1515,-1,8,34814
1354723893,5804,349.8399963378906000,18.1275005340576170,36.5629997253418000,232.0290985107422000,150.9792938232422000,18.1272602081298830,30.8208293914794920,50,100,55,59,57,13046,2146956644,2147514770,2147263186,2147458953,2147080484,2146958729,2147655552,2147129590,658,-1,9,61924
1354724020,5806,338.9599914550781000,18.2091007232666000,36.5717010498046900,231.6631011962890600,148.4340972900390600,18.2041492462158200,30.8046607971191400,50,99,54,59,57,13045,2146954048,2147513892,2147266102,2147456512,2147086537,2146956754,2147654701,2147118363,3571,-2,8,57095
1354724147,5752,328.5199890136719000,18.2747001647949220,36.5782012939453100,230.6219024658203000,146.2704010009765600,18.2695198059082030,30.8269500732421880,50,100,54,59,57,13043,2146955026,2147515145,2147261760,2147458797,2147084937,2146958290,2147658468,2147130678,2144,-1,8,219
1354724288,5807,317.2999877929687500,18.3801994323730470,36.5889015197753900,229.2933044433593800,142.7348937988281200,18.3763694763183600,30.8451004028320300,51,100,54,59,58,13047,2146955675,2147513517,2147264137,2147457453,2147085824,2146964077,2147657645,2147129938,704,-1,8,65133
1354724427,5802,306.3299865722656000,18.4650001525878900,36.5960998535156250,227.9815063476562500,139.9434967041015600,18.4607505798339840,30.8728008270263670,51,98,55,60,56,13043,2146957321,2147513965,2147266998,2147456448,2147084909,2146967497,2147657234,2147130112,3289,-2,9,21249
1354724575,5808,293.1700134277344000,18.5526008605957030,36.5810012817382800,228.4532928466797000,137.1170043945312500,18.5462093353271500,30.8116397857666000,51,99,53,58,57,13043,2146954258,2147514596,2147264045,2147454454,2147086528,2146962148,2147658715,2147131904,1727,-1,8,32807
1354724678,5809,282.2500000000000000,18.6979007720947270,36.5833015441894500,229.1961975097656200,132.3981018066406200,18.6889305114746100,30.7119407653808600,50,98,55,59,57,13047,2146957805,2147513005,2147263021,2147456768,2147085522,2146961252,2147664137,2147137252,1801,-1,9,47252
1354724793,5805,270.6900024414062500,18.7262992858886720,36.5787010192871100,230.4727020263672000,131.2682952880859400,18.7231101989746100,30.6343593597412100,50,100,55,59,57,13045,2146956982,2147513280,2147263908,2147457801,2147085193,2146966381,2147666093,2147133961,1171,-1,8,54154
1354724912,5808,260.2900085449219000,18.8076992034912100,36.5708007812500000,230.6445007324218800,128.7174987792968800,18.8002796173095700,30.5919208526611330,51,97,54,59,56,13046,2146955830,2147516891,2147266276,2147454171,2147087204,2146967433,2147671588,2147128905,969,-1,9,60422
1354725063,5804,249.7400054931640600,18.8582000732421880,36.5676002502441400,232.3865966796875000,126.6126022338867200,18.8639793395996100,30.4790592193603500,50,97,55,59,56,13044,2146957321,2147518930,2147261485,2147454372,2147078198,2146970249,2147681883,2147132169,3296,-1,9,6959
1354725220,5804,237.2700042724609400,19.0233993530273440,36.5769996643066400,233.5576019287109400,121.4253005981445300,19.0209999084472660,30.3542194366455080,50,97,54,59,56,13042,2146957833,2147512832,2147264173,2147456731,2147080265,2146976292,2147687835,2147130148,2394,-1,8,34447
1354725335,5805,226.4400024414062500,19.0806999206542970,36.5656013488769500,238.2592010498047000,119.5167999267578100,19.0787906646728500,30.1054496765136720,50,99,53,59,56,13041,2146956617,2147513197,2147265078,2147451675,2147084845,2146980809,2147704064,2147134628,2202,-1,8,7921
1354725464,5805,214.9199981689453000,19.1793994903564450,36.5656013488769500,241.3386993408203000,116.1387023925781200,19.1811103820800780,29.9177894592285160,50,101,54,60,56,13038,2146953773,2147514020,2147265152,2147453330,2147083794,2146992310,2147724022,2147131574,1423,-2,8,61640
1354725591,5803,204.0399932861328000,19.2733001708984380,36.5696983337402340,242.9001007080078000,113.1811981201171900,19.2707099914550780,29.8074798583984380,50,99,54,59,56,13038,2146958043,2147515858,2147264859,2147451812,2147078811,2147013010,2147760996,2147133659,3398,-1,8,28130
1354725670,5808,197.6199951171875000,19.3190002441406250,36.5742988586425800,243.2418975830078000,111.6566009521484400,19.3169097900390620,29.7720203399658200,50,99,54,60,56,13040,2146957897,2147514752,2147265773,2147451108,2147078784,2147027748,2147783835,2147136347,2681,-1,8,7449
1354725725,5807,193.2299957275390600,19.3425006866455080,36.5760993957519500,243.3287963867187500,110.8963012695312500,19.3399505615234380,29.7582702636718750,50,106,54,58,56,13038,2146958080,2147516653,2147267446,2147452845,2147088886,2147040411,2147800786,2147142153,2138,-1,8,10583
1354725801,5805,187.5899963378906200,19.3614997863769530,36.5654983520507800,244.6096954345703000,110.3202972412109400,19.3574104309082030,29.6922893524169920,51,100,55,59,56,13039,2146957110,2147514880,2147269997,2147451492,2147088786,2147058715,2147830345,2147139163,1518,-1,9,47307
1354725856,5806,183.9199981689453000,19.3845996856689450,36.5663986206054700,244.8903045654297000,109.5218963623046900,19.3816108703613280,29.6694202423095700,50,100,54,59,57,13036,2146957092,2147516745,2147269147,2147452653,2147089819,2147064484,2147846226,2147146797,1129,-1,8,63056
1354725911,5805,180.3200073242187500,19.4454002380371100,36.5712013244628900,244.4405975341797000,107.4815979003906200,19.4434604644775400,29.6631202697753900,50,102,54,58,54,13035,2146957869,2147518317,2147270171,2147451190,2147081572,2147078134,2147863497,2147143552,778,-1,9,41351
1354725978,5806,175.9499969482422000,19.5445995330810550,36.5792999267578100,243.5984954833984400,103.9918975830078100,19.5492801666259770,29.6564292907714840,52,104,55,59,56,13034,2146958308,2147518555,2147269403,2147451053,2147087899,2147091840,2147886921,2147144731,1209,-1,9,42510
1354726045,5803,172.0700073242187500,19.6103992462158200,36.5894012451171900,242.8852996826172000,102.1611022949218800,19.6048107147216800,29.6651496887207030,51,104,55,59,56,13030,2146956882,2147520173,2147270692,2147447259,2147090432,2147103680,2147914038,2147144941,2414,-1,9,49473
1354726124,5803,167.5800018310547000,19.6655006408691400,36.5951995849609400,242.3079986572265600,100.3772964477539000,19.6589298248291000,29.6685295104980470,51,101,54,59,56,13033,2146955867,2147520484,2147269760,2147449590,2147097142,2147132992,2147948242,2147146121,2232,-1,9,12702
1354726203,5804,163.3200073242187500,19.6968002319335940,36.5941009521484400,242.6291961669922000,99.1707305908203100,19.6955394744873050,29.6382198333740230,52,104,54,60,57,13028,2146955766,2147520667,2147272621,2147451629,2147103798,2147155264,2147989805,2147151186,2133,-1,9,57787
1354726282,5804,159.0899963378906200,19.7844009399414060,36.6045989990234400,242.0780944824218800,96.4621429443359400,19.7777404785156250,29.6282997131347660,52,101,54,58,56,13021,2146959030,2147522697,2147272832,2147450230,2147110400,2147190418,2148036525,2147156891,2056,-1,9,26896
1354726349,5807,155.4799957275390600,19.8227996826171880,36.6087989807128900,240.8014068603515600,95.1881484985351600,19.8164100646972660,29.6705207824707030,51,101,54,60,57,13028,2146954898,2147521243,2147274240,2147449865,2147113261,2147216365,2148077110,2147154934,1688,-2,9,45258
1354726431,5804,151.1000061035156200,19.8672008514404300,36.6119003295898440,240.1175994873047000,93.4905471801757800,19.8679504394531250,29.6800594329834000,52,105,54,60,56,13026,2146959625,2147522971,2147279232,2147448850,2147119460,2147252224,2148135862,2147161179,1308,-2,8,42153
1354726498,5803,147.7700042724609400,19.9354000091552730,36.6167984008789060,239.8188018798828000,91.5297088623046900,19.9274997711181640,29.6683807373046880,54,106,55,60,57,13022,2146956809,2147525787,2147278811,2147450934,2147129033,2147296137,2148193965,2147163885,1122,-1,9,19907
1354726589,5803,143.4299926757812500,20.0130004882812500,36.6213989257812500,239.4763946533203000,88.8007583618164000,20.0103893280029300,29.6491508483886720,54,103,55,59,57,13023,2146957330,2147527332,2147282249,2147448731,2147142537,2147362688,2148287186,2147169609,1615,-2,9,42887
1354726680,5806,139.4199981689453000,20.1394004821777340,36.6301994323730500,239.7496032714843800,84.8475799560546900,20.1305198669433600,29.5855293273925780,56,106,55,59,56,13024,2146957814,2147526363,2147284086,2147450112,2147164114,2147414409,2148361883,2147176905,1264,-1,9,1300
1354726774,5807,135.4799957275390600,20.2539005279541000,36.6380996704101560,239.0847015380859400,80.7399902343750000,20.2553901672363280,29.5632400512695300,55,106,54,60,56,13021,2146956406,2147532086,2147287707,2147447798,2147179328,2147473362,2148438774,2147182912,1333,-1,9,11294
1354726865,5803,131.9199981689453000,20.3873996734619140,36.6483993530273440,238.9158020019531200,76.7935028076171900,20.3754291534423830,29.5202198028564450,57,105,55,59,56,13023,2146961051,2147529920,2147294454,2147446208,2147203300,2147552896,2148548763,2147190674,1115,-1,9,37646
1354726980,5802,127.8600006103515600,20.4585990905761720,36.6525993347168000,238.8748931884765600,74.2637863159179700,20.4524097442626950,29.4895896911621100,58,109,54,59,56,13018,2146960045,2147536905,2147296722,2147447058,2147235254,2147665270,2148688502,2147197650,1367,-2,9,571
1354727081,5804,123.6299972534179700,20.6264991760253900,36.6590995788574200,237.8392944335937500,69.1693878173828100,20.6075000762939450,29.4722995758056640,60,107,55,61,56,13014,2146963995,2147540946,2147305728,2147448265,2147279817,2147793243,2148849316,2147211922,1317,-2,9,34246
1354727172,5802,119.6500015258789000,20.7681999206542970,36.6618995666503900,237.3522033691406200,64.4876403808593800,20.7501201629638670,29.4348392486572270,61,109,54,60,57,13009,2146962834,2147545389,2147310363,2147446619,2147336941,2147959003,2149066422,2147228745,1221,-2,9,6477
1354727275,5806,115.6299972534179700,20.8750000000000000,36.6696014404296900,237.1287994384765600,60.8255691528320300,20.8617401123046880,29.3980903625488280,65,110,55,60,56,13008,2146969051,2147550418,2147322422,2147443739,2147397814,2148108754,2149236598,2147244205,592,-2,9,49021
1354727380,5807,111.8499984741211000,21.0508995056152340,36.6702995300293000,237.0014953613281200,55.0824584960937500,21.0369091033935550,29.3306007385253900,72,114,55,60,57,12995,2146969142,2147559232,2147332425,2147444589,2147488649,2148333513,2149498084,2147262637,3546,-2,9,4698
1354727495,5804,108.0899963378906200,21.1487998962402340,36.6735992431640600,237.5711975097656200,51.4888381958007800,21.1465892791748050,29.2584304809570300,75,113,54,59,56,12995,2146974162,2147561545,2147333952,2147446866,2147562715,2148436928,2149580836,2147272557,3199,-2,8,38064
1354727669,5805,103.3199996948242200,21.4414005279541000,36.6772003173828100,234.5567016601562500,42.2498588562011700,21.4288406372070300,29.2810897827148440,96,118,55,61,57,12970,2146980260,2147574473,2147344365,2147444891,2147725842,2148722377,2149896228,2147302994,2373,-2,9,2644
1354727760,5803,100.1600036621093800,21.8871002197265620,36.6316986083984400,234.7346038818359400,27.9836502075195300,21.8654708862304700,29.0911903381347660,111,122,56,59,56,12951,2146990198,2147590564,2147362560,2147446006,2147928521,2149108370,2150356827,2147342820,2319,-3,9,50810
1354727815,5805,99.2200012207031200,21.9633998870849600,36.6138000488281250,237.3733062744140600,25.4503097534179700,21.9430999755859380,28.9369792938232420,109,124,56,60,56,12952,2146987913,2147594093,2147374381,2147444681,2147999515,2149259785,2150548022,2147362066,2394,-2,9,10227
1354727990,5804,98.0800018310546900,22.1692008972167970,36.5449981689453100,243.1217041015625000,18.6869392395019530,22.1505393981933600,28.5915107727050780,94,122,55,59,55,12939,2147002313,2147619684,2147406198,2147444827,2148043501,2149358619,2150643675,2147370240,3204,2,1,6055
1354728189,5804,95.2200012207031200,22.2639999389648440,36.5107994079589840,244.1407012939453000,15.7388696670532230,22.2410392761230470,28.5091800689697270,89,122,55,59,54,12947,2147016731,2147631926,2147426249,2147442459,2148341211,2149864411,2151200749,2147420370,1435,-1,9,33843
1354728280,5803,92.0800018310546900,22.4092998504638670,36.4767990112304700,246.5108032226562500,10.9382295608520500,22.3885002136230470,28.3447494506835940,79,122,55,62,55,12944,2147030125,2147662784,2147465289,2147444717,2148674048,2150450733,2151798656,2147475254,1138,-1,9,13811
1354728335,5806,90.0000000000000000,22.4169998168945300,36.4757995605468750,248.2808074951172000,10.2682800292968750,22.4090900421142580,28.2593307495117200,80,124,54,61,53,12941,2147043849,2147680137,2147478363,2147444662,2148936923,2150870637,2152216137,2147515446,1239,-1,9,57844
1354728390,5806,88.0899963378906200,22.4223995208740230,36.4733009338378900,249.1558074951172000,9.9985151290893550,22.4173793792724600,28.2182006835937500,81,120,55,62,53,12937,2147058752,2147701147,2147502857,2147446171,2149214857,2151323236,2152664914,2147557604,1251,-1,9,58598
1354728457,5804,85.9700012207031200,22.4225006103515620,36.4697990417480500,250.0404968261718800,9.9173784255981450,22.4198703765869140,28.1788902282714840,82,122,55,61,54,12922,2147070601,2147720768,2147528621,2147446710,2149491611,2151735561,2153037732,2147590491,1092,-1,9,38330
1354728524,5802,84.1399993896484400,22.4218006134033200,36.4691009521484400,250.3775024414062500,9.8290624618530270,22.4225902557373050,28.1632499694824220,84,123,55,60,54,12940,2147085385,2147746806,2147558674,2147448484,2149815570,2152253833,2153558665,2147639606,1018,-1,9,29671
1354728603,5808,81.4700012207031200,22.4211997985839840,36.4609985351562500,251.1578063964843800,9.9393100738525390,22.4192008972167970,28.1311206817626950,80,120,55,61,54,12928,2147106441,2147776393,2147599296,2147451035,2150322249,2153020278,2154273883,2147706861,918,-1,8,9520
1354728658,5807,78.8700027465820300,22.4197998046875000,36.4595985412597660,251.3115997314453000,9.9731416702270500,22.4181594848632800,28.1248607635498050,83,127,55,60,52,12929,2147133906,2147815204,2147653010,2147458578,2150891053,2153913088,2155153289,2147790189,704,-1,9,56395
1354728713,5805,75.9400024414062500,22.4179000854492200,36.4566001892089840,251.5722961425781200,10.0574302673339840,22.4155693054199220,28.1149291992187500,80,124,55,63,53,12934,2147158683,2147850102,2147690432,2147461568,2151459648,2154732306,2155905581,2147873417,672,-1,9,47343
1354728768,5804,72.6999969482421900,22.4127006530761720,36.4547004699707000,252.0339050292968800,10.1762304306030270,22.4119091033935550,28.0967006683349600,81,124,55,61,55,12927,2147197101,2147899501,2147750875,2147464722,2152294957,2155976594,2157098240,2147995136,453,-1,9,13212
1354728823,5808,69.3000030517578100,22.4139003753662100,36.4548988342285160,252.1963043212890600,10.1251897811889650,22.4134807586669920,28.0892505645751950,81,122,56,60,53,12922,2147231341,2147945801,2147784292,2147467556,2153122669,2157146733,2158188571,2148112466,51,-1,9,55411
1354728878,5804,66.0400009155273400,22.4178009033203120,36.4566001892089840,252.1945037841797000,10.0316600799560550,22.4163608551025400,28.0880298614501950,83,124,56,61,53,12922,2147273088,2147989888,2147816758,2147467117,2153969462,2158283584,2159172516,2148241206,3435,-2,9,50268
1354728936,5802,63.3100013732910160,22.4225997924804700,36.4579010009765600,252.3610992431640600,9.8454856872558600,22.4220790863037100,28.0786991119384770,82,126,55,61,53,12923,2147304237,2148023762,2147825618,2147466450,2154787282,2159410084,2160181120,2148367881,2491,-2,9,51840
1354728991,5807,60.3100013732910160,22.4218997955322270,36.4579010009765600,252.4365997314453000,9.9165916442871100,22.4199008941650400,28.0763607025146500,81,124,56,61,53,12924,2147347593,2148078555,2147882660,2147474587,2155879899,2160805732,2161460315,2148544320,2095,-1,9,48337
1354729046,5802,56.9199981689453100,22.4185009002685550,36.4561996459960940,252.4593963623047000,10.0053997039794920,22.4171695709228500,28.0762996673584000,82,126,53,61,53,12926,2147408512,2148147291,2147950281,2147479908,2157203318,2162543305,2163012946,2148766272,2003,-1,9,55172
1354729101,5807,53.5499992370605500,22.4137001037597660,36.4553985595703100,252.7731018066406200,10.3987903594970700,22.4050807952880860,28.0679092407226560,80,122,55,61,53,12917,2147468379,2148212013,2148014125,2147487634,2158611849,2164195977,2164342244,2149001078,1903,-1,9,62596
1354729243,5806,46.5699996948242200,22.4008998870849600,36.4486007690429700,253.2021942138672000,10.5944004058837890,22.3990592956542970,28.0521793365478500,79,124,55,61,53,12903,2147747136,2148559542,2148383643,2147529170,2165014784,2172963401,2172700690,2150229366,1975,-1,9,34059
1354729279,5808,44.6100006103515600,22.3999996185302730,36.4482002258300800,253.2070007324218800,10.5920400619506840,22.3991394042968750,28.0518608093261720,77,128,55,62,54,12900,2147820498,2148646619,2148470747,2147540982,2166799378,2175164964,2174615926,2150592210,1974,-1,9,2643
1354729312,5806,42.8400001525878900,22.3994007110595700,36.4478988647460940,253.4210052490234400,10.6180095672607420,22.3983402252197270,28.0431804656982420,77,128,57,61,54,12901,2147914294,2148762962,2148589869,2147559131,2168832219,2177818386,2177115456,2151012333,1905,-1,9,60090
1354729357,5807,40.2999992370605500,22.4102993011474600,36.4524002075195300,253.3742980957031200,10.2702503204345700,22.4090309143066400,28.0408802032470700,77,133,56,59,54,12895,2148047076,2148906779,2148733915,2147580132,2171985289,2181840018,2180652681,2151694116,1903,-1,9,9233
1354729390,5763,38.4399986267089840,22.4025993347167970,36.4458999633789060,253.4705047607422000,10.4548501968383790,22.4033508300781250,28.0391101837158200,72,124,55,61,53,12891,2148170642,2149053202,2148890834,2147606838,2174836470,2185426742,2183989869,2152384292,1793,-1,8,47477
1354729423,5808,36.6599998474121100,22.4013004302978500,36.4454994201660160,253.5942993164062500,10.4937896728515620,22.4021606445312500,28.0342407226562500,72,126,56,61,53,12898,2148289865,2149192347,2149034395,2147634870,2177356470,2188495981,2186728630,2152899236,1750,-1,9,27036
1354729468,5807,34.4599990844726560,22.4011001586914060,36.4454994201660160,253.7180938720703000,10.5208396911621100,22.4013309478759770,28.0292491912841800,72,127,54,61,53,12896,2148414281,2149309860,2149129654,2147652333,2180748160,2192430290,2189919872,2153704649,1954,-1,9,60930
1354729513,5804,32.2700004577636700,22.3985996246337900,36.4466018676757800,253.7156982421875000,10.5436601638793950,22.4006195068359380,28.0296707153320300,71,124,55,61,54,12890,2148550921,2149433307,2149228617,2147677092,2183985901,2195998692,2192678061,2154489408,2202,-2,9,22817
1354729546,5807,30.6499996185302730,22.4020004272460940,36.4458007812500000,253.7709960937500000,10.4341001510620120,22.4039897918701170,28.0261192321777340,70,126,55,61,54,12894,2148720841,2149613824,2149406189,2147704731,2187896804,2200725156,2196798820,2155470390,2342,-1,9,25295
1354729593,5803,28.2500000000000000,22.4036998748779300,36.4458999633789060,253.9179992675781200,10.3536500930786130,22.4064598083496100,28.0188198089599600,70,131,55,60,56,12893,2148985746,2149901723,2149691876,2147766756,2194451940,2208651456,2203681005,2157193115,2384,-1,9,63433
1354729626,5804,26.4400005340576170,22.4030990600585940,36.4454002380371100,253.8446960449218800,10.3396797180175780,22.4068908691406250,28.0218505859375000,69,127,55,61,53,12890,2149225837,2150161737,2149941522,2147822482,2200352283,2215676269,2209923830,2158923821,2411,-1,9,24156
